SCP
-0 0 0 0 0 0 0 0 0 0 0 0 0 0 0 0 0 0 0 0 0 0
0 0 0 0 -0 0 0 0 0 0 0 0 0 0 0 0 0 0 0 0 0 0
0 0 0 0 0 0 0 0 0 0 0 0 0 0 0 0 0 0 0 0 0 0
0 0 0 0 0 0 0 0 0 0 0 0 0 0 0 0 0 0 0 0 0 0
0 0 0 0 0 0 0 0 0 0 0 0 0 0 0 0 0 0 0 0 0 0
0 0 0 0 0 0 0 0 0 0 0 0 0 0 0 0 0 0 0 0 0 0
0 0 0 0 0 0 0 0 0 0 0 0 0 0 0 0 0 0 0 0 0 0
0 0 0 0 0 0 0 0 0 0 0 0 0 0 0 0 0 0 0 0 0 0
0 0 0 0 0 0 0 0 0 0 0 0 0 0 0 0 0 0 0 0 0 0
0 0 0 0 0 0 0 0 0 0 0 0 0 0 0 0 0 0 0 0 0 0
0 0 0 0 0 0 0 0 0 0 0 0 0 0 0 0 0 0 0 0 0 0
0 0 0 0 0 0 0 0 0 0 0 0 0 0 0 0 0 0 0 0 0 0
0 0 0 0 0 0 0 0 0 0 0 0 0 0 0 0 0 0 0 0 0 0
0 0 0 0 0 0 0 0 0 0 0 0 0 0 0 0 0 0 0 0 0 0
Wind_Speed_500mb
14 7 9 11 10 12 12 16 20 22 25 28 30 32 31 26 28 28 25 30 31 25
6 7 2 7 12 9 13 12 19 21 24 26 28 31 33 30 30 32 30 27 26 29
4 2 2 4 8 10 14 17 21 23 25 27 29 31 35 33 31 33 31 29 32 30
8 8 8 10 13 17 21 22 24 26 29 30 31 32 36 39 34 34 33 31 30 31
12 13 14 17 22 25 29 26 31 33 34 33 35 35 37 41 35 39 35 34 35 35
15 17 19 24 26 32 33 33 32 33 31 32 35 38 39 33 38 41 35 34 39 43
15 19 23 23 31 44 45 51 45 35 20 28 39 40 42 35 40 41 34 37 36 33
17 19 24 27 29 32 34 38 38 47 59 56 34 41 45 52 54 36 36 35 33 33
14 10 20 24 28 32 35 41 41 42 42 42 34 39 45 49 46 35 31 35 35 32
10 14 20 25 27 27 32 36 37 34 33 31 32 36 41 36 39 32 33 38 36 37
17 21 24 27 28 34 36 36 35 36 31 31 32 35 39 43 34 32 34 33 32 35
18 25 28 31 33 35 35 34 32 31 30 31 30 39 39 45 36 35 37 34 35 38
23 27 28 30 33 36 38 37 32 33 38 29 31 40 44 46 35 37 32 28 27 29
20 24 27 29 36 35 36 31 27 31 31 27 31 31 30 32 35 32 32 29 33 32
Wind_Direction_500mb
92 67 49 24 36 14 11 350 2 1 1 2 1 1 14 356 345 328 332 331 332 336
100 146 39 29 47 338 345 347 335 344 344 348 350 350 352 340 346 336 332 327 321 328
204 182 308 334 323 323 324 329 330 328 330 334 338 340 345 342 336 330 330 326 319 322
226 252 275 297 304 303 303 309 308 309 311 316 323 327 333 334 334 328 322 318 314 312
259 267 279 289 292 296 292 296 303 302 302 303 311 320 322 327 323 329 321 315 310 304
272 272 281 281 289 299 302 303 297 291 300 301 312 316 315 316 321 324 320 316 307 304
263 268 290 291 286 288 287 300 294 287 280 302 303 310 304 308 316 319 319 306 302 306
241 270 296 310 313 316 313 301 294 294 293 293 303 299 301 306 310 317 313 316 310 313
303 348 330 332 329 322 316 314 308 303 298 308 300 295 297 302 310 314 312 317 317 308
340 326 320 316 319 324 325 321 316 313 311 306 302 298 304 312 310 315 310 309 314 316
322 323 330 328 323 322 319 319 322 320 311 310 310 309 313 310 321 315 312 309 303 308
332 323 321 323 323 325 323 322 323 318 327 318 320 314 314 318 332 317 315 312 310 314
331 326 330 330 328 324 317 314 316 321 322 325 321 312 314 326 332 322 324 311 303 309
328 335 338 327 326 319 323 324 329 320 315 325 331 325 329 333 343 324 312 315 314 312
Wind_Speed_850mb
14 7 9 11 10 12 12 16 20 22 25 28 30 32 31 26 28 28 25 30 31 25
6 7 2 7 12 9 13 12 19 21 24 26 28 31 33 30 30 32 30 27 26 29
4 2 2 4 8 10 14 17 21 23 25 27 29 31 35 33 31 33 31 29 32 30
8 8 8 10 13 17 21 22 24 26 29 30 31 32 36 39 34 34 33 31 30 31
12 13 14 17 22 25 29 26 31 33 34 33 35 35 37 41 35 39 35 34 35 35
15 17 19 24 26 32 33 33 32 33 31 32 35 38 39 33 38 41 35 34 39 43
15 19 23 23 31 44 45 51 45 35 20 28 39 40 42 35 40 41 34 37 36 33
17 19 24 27 29 32 34 38 38 47 59 56 34 41 45 52 54 36 36 35 33 33
14 10 20 24 28 32 35 41 41 42 42 42 34 39 45 49 46 35 31 35 35 32
10 14 20 25 27 27 32 36 37 34 33 31 32 36 41 36 39 32 33 38 36 37
17 21 24 27 28 34 36 36 35 36 31 31 32 35 39 43 34 32 34 33 32 35
18 25 28 31 33 35 35 34 32 31 30 31 30 39 39 45 36 35 37 34 35 38
23 27 28 30 33 36 38 37 32 33 38 29 31 40 44 46 35 37 32 28 27 29
20 24 27 29 36 35 36 31 27 31 31 27 31 31 30 32 35 32 32 29 33 32
Wind_Direction_850mb
92 67 49 24 36 14 11 350 2 1 1 2 1 1 14 356 345 328 332 331 332 336
100 146 39 29 47 338 345 347 335 344 344 348 350 350 352 340 346 336 332 327 321 328
204 182 308 334 323 323 324 329 330 328 330 334 338 340 345 342 336 330 330 326 319 322
226 252 275 297 304 303 303 309 308 309 311 316 323 327 333 334 334 328 322 318 314 312
259 267 279 289 292 296 292 296 303 302 302 303 311 320 322 327 323 329 321 315 310 304
272 272 281 281 289 299 302 303 297 291 300 301 312 316 315 316 321 324 320 316 307 304
263 268 290 291 286 288 287 300 294 287 280 302 303 310 304 308 316 319 319 306 302 306
241 270 296 310 313 316 313 301 294 294 293 293 303 299 301 306 310 317 313 316 310 313
303 348 330 332 329 322 316 314 308 303 298 308 300 295 297 302 310 314 312 317 317 308
340 326 320 316 319 324 325 321 316 313 311 306 302 298 304 312 310 315 310 309 314 316
322 323 330 328 323 322 319 319 322 320 311 310 310 309 313 310 321 315 312 309 303 308
332 323 321 323 323 325 323 322 323 318 327 318 320 314 314 318 332 317 315 312 310 314
331 326 330 330 328 324 317 314 316 321 322 325 321 312 314 326 332 322 324 311 303 309
328 335 338 327 326 319 323 324 329 320 315 325 331 325 329 333 343 324 312 315 314 312